SCP
1 1 1 1 1 1 1 1 1 1 0 0 0 0 0 0 0 0 0 1 1 1 1 1 1 1 1 1 0 0 0 0 0 0 0 0 0 0 0 0 0 0 0
1 1 1 1 1 1 1 1 1 1 0 0 0 0 0 0 0 0 0 1 1 1 1 1 1 1 1 1 1 0 0 0 0 0 0 0 0 0 0 0 0 0 0
1 1 1 1 1 1 1 1 1 1 1 0 0 0 0 0 0 0 0 1 1 1 1 1 1 1 1 1 1 1 0 0 0 0 0 0 0 0 0 0 0 0 0
2 2 1 1 1 1 1 1 1 1 1 1 0 0 0 0 0 0 0 1 1 1 1 1 1 1 1 1 1 1 1 1 0 0 0 0 0 0 0 0 0 0 0
2 2 1 1 2 1 1 1 1 1 1 1 0 0 0 0 0 0 0 1 1 1 1 1 1 1 1 1 1 1 1 1 1 1 1 1 0 0 0 0 0 0 0
2 1 1 2 2 1 1 1 1 1 1 0 0 0 0 0 0 0 0 1 1 1 1 1 1 1 1 2 2 2 2 1 1 1 1 1 1 0 0 0 0 0 0
2 1 1 2 1 1 1 1 1 1 0 0 0 0 0 0 0 0 0 0 1 1 1 1 1 1 1 2 2 2 2 2 2 1 1 1 1 1 0 0 0 0 0
2 2 1 1 1 1 1 1 1 1 1 1 1 0 0 0 0 0 0 0 1 1 1 1 1 1 1 1 2 2 2 2 2 2 2 1 1 1 1 1 0 0 0
2 2 2 1 1 1 1 1 1 1 1 1 1 1 0 0 0 0 0 0 0 0 1 1 1 1 2 1 1 1 2 2 2 2 2 2 1 1 1 1 1 1 1
3 2 2 2 1 2 2 2 1 1 1 1 1 1 0 0 0 0 0 0 0 0 0 1 1 1 1 1 1 1 1 1 1 2 2 2 2 1 1 1 1 1 1
2 2 2 2 2 2 2 2 1 1 1 1 1 1 1 0 0 0 0 0 0 0 0 1 1 1 1 1 1 1 1 1 1 1 1 1 2 1 1 1 1 1 1
2 2 2 2 2 2 1 1 1 1 1 1 1 1 1 1 0 0 0 0 0 0 0 0 1 1 1 1 1 1 1 1 0 1 1 1 1 1 1 1 1 1 1
2 2 2 2 1 1 1 1 1 1 1 1 1 1 1 1 0 0 0 0 0 0 0 0 0 1 1 1 1 1 1 0 0 0 0 1 1 1 1 1 1 1 1
2 2 2 2 1 1 1 1 1 1 1 1 0 0 0 1 0 0 0 0 0 0 0 0 0 0 1 1 1 1 1 1 0 0 0 0 0 1 1 1 1 1 1
2 2 2 1 1 1 1 1 1 1 1 0 0 0 0 0 0 0 0 0 0 0 0 0 0 0 0 0 0 1 1 1 0 0 0 0 0 0 0 0 0 1 1
2 2 2 1 1 1 1 1 1 1 1 1 1 0 0 1 1 1 0 0 0 0 0 0 0 0 0 0 0 0 1 1 1 0 0 0 0 0 0 0 0 0 0
2 2 1 1 1 1 1 1 1 1 1 1 1 1 1 1 1 1 1 0 0 0 0 0 0 0 0 0 0 0 1 1 1 0 0 0 0 0 0 0 0 0 0
2 1 1 1 1 1 1 1 1 1 1 1 1 1 1 1 1 0 0 0 0 0 0 0 0 0 0 0 0 0 1 1 1 0 0 0 0 0 0 0 0 0 0
2 2 1 1 1 1 1 1 1 1 1 1 1 1 1 1 1 1 0 0 0 0 0 0 0 0 0 0 0 0 0 0 0 0 0 0 0 0 0 0 0 0 0
2 2 2 2 2 2 2 2 1 1 1 1 1 1 1 1 1 1 1 0 0 0 0 0 0 0 0 0 0 0 0 0 0 0 0 0 0 0 0 0 0 0 0
2 2 2 2 2 3 3 2 2 2 2 1 1 1 1 1 1 1 1 0 0 0 0 0 0 0 0 0 0 0 0 0 0 0 0 0 0 0 0 0 0 0 0
2 2 2 2 3 3 2 2 2 2 2 2 2 2 1 1 1 1 0 0 0 0 0 0 0 0 0 0 0 0 0 0 0 0 0 0 0 0 0 0 0 0 0
2 2 2 2 2 2 1 1 1 2 2 2 2 1 1 1 1 0 0 0 0 0 0 0 0 0 0 0 0 0 0 0 0 0 0 0 0 0 0 0 0 0 0
2 2 1 1 1 1 0 0 1 1 1 1 1 1 1 1 0 0 0 0 0 0 0 0 0 0 0 0 0 0 0 0 0 0 0 0 0 0 0 0 0 0 0
1 1 1 0 0 0 0 0 0 0 0 0 0 0 0 0 0 0 0 0 0 0 0 0 0 0 0 0 0 0 0 0 0 0 0 0 0 0 0 0 0 0 0
0 0 0 0 0 0 0 0 0 0 0 0 0 0 0 0 0 0 0 0 0 0 0 0 0 0 0 0 0 0 0 0 0 0 0 0 0 0 0 0 0 0 0
Wind_Speed
4 3 3 3 3 2 2 3 3 3 2 2 2 3 4 5 5 4 4 13 14 14 14 14 14 13 13 12 12 11 11 11 10 10 9 9 10 10 9 9 9 8 8
4 4 4 3 3 3 3 3 4 3 3 2 2 3 4 5 6 6 5 8 14 14 14 15 14 14 14 13 13 12 12 11 11 10 10 10 10 10 10 10 9 9 9
5 4 4 3 3 3 3 3 3 2 2 2 3 3 3 4 6 6 6 5 6 13 15 15 15 15 15 15 14 14 13 12 12 11 11 11 10 10 10 10 10 10 9
5 4 4 3 3 3 2 2 2 2 2 2 2 2 3 4 6 7 6 6 5 6 11 16 16 15 16 16 16 15 14 13 13 13 13 12 12 11 11 11 11 10 10
5 4 4 3 3 2 2 3 2 2 2 2 3 3 3 3 4 6 7 8 7 7 6 11 16 16 17 17 16 16 16 15 14 14 14 14 14 13 13 13 12 12 11
5 4 4 4 3 2 2 2 2 2 2 2 3 2 2 3 4 5 7 7 7 8 8 8 8 10 17 16 16 16 17 17 16 16 16 15 15 14 13 13 13 13 13
5 4 4 3 3 3 4 4 2 2 2 1 0 2 3 3 4 4 4 5 7 8 8 8 6 6 6 14 15 16 17 17 17 17 16 16 16 15 14 14 14 13 13
4 5 5 4 4 4 4 4 3 2 2 2 2 1 2 4 3 4 3 4 5 4 6 8 7 7 6 5 9 16 17 17 17 17 17 16 16 15 15 16 15 15 14
3 3 5 5 4 4 4 5 4 4 3 2 3 4 3 3 3 3 2 3 3 3 3 4 6 7 7 5 5 10 15 15 16 17 16 15 15 14 15 16 16 16 15
3 4 4 5 5 4 4 5 5 4 4 3 2 2 3 3 2 2 3 2 1 2 3 4 5 5 6 5 6 7 11 13 14 15 14 14 13 13 13 14 15 16 16
3 4 4 4 4 4 4 4 4 4 4 4 3 2 2 2 3 2 3 3 2 2 2 3 3 3 4 5 5 6 9 10 11 11 11 10 11 11 11 12 12 13 14
3 3 3 3 3 3 4 4 4 4 4 4 3 3 3 3 3 3 4 3 2 2 2 2 2 3 3 4 6 7 8 9 9 9 9 9 9 9 10 10 10 10 11
2 3 3 3 3 4 4 3 3 4 4 4 4 3 3 3 3 3 3 3 2 2 1 1 2 2 3 2 3 6 7 8 8 8 8 7 7 7 7 7 8 8 8
2 2 2 3 3 3 3 3 3 3 3 3 4 3 2 2 2 2 3 2 2 2 1 2 1 1 1 1 2 4 3 6 7 7 7 7 6 5 5 5 5 5 5
1 1 1 2 2 1 2 2 2 2 1 2 2 2 2 2 2 2 2 3 3 2 2 2 1 1 1 0 1 1 2 3 5 6 6 6 5 4 4 4 4 4 4
1 1 2 2 2 1 1 1 1 0 1 0 0 1 1 1 1 1 1 1 2 3 2 1 1 1 1 1 1 0 1 1 3 4 5 5 5 5 4 3 3 3 3
1 2 2 2 3 3 2 2 2 2 1 1 1 0 1 1 1 1 0 0 0 1 2 1 1 1 1 1 2 1 1 1 0 2 3 4 4 4 3 3 2 2 1
2 2 2 3 3 3 3 3 3 3 2 2 2 2 2 1 1 1 1 1 0 1 2 1 1 1 1 1 2 2 2 2 1 2 2 2 2 2 1 1 1 0 1
2 2 3 3 3 3 3 3 3 4 4 4 4 3 3 3 3 2 2 2 1 2 1 2 0 1 1 2 2 3 3 2 3 4 5 5 4 4 3 3 3 3 2
3 3 3 3 3 3 4 4 5 5 5 5 5 4 4 4 4 3 3 3 2 3 2 2 2 1 1 2 2 2 2 2 3 4 5 5 7 7 7 6 5 5 5
4 4 4 4 4 4 4 5 5 6 5 5 5 5 6 8 9 6 4 3 4 3 3 3 2 2 3 2 2 1 1 1 2 3 3 4 3 3 4 6 6 6 6
4 5 5 5 5 5 8 9 7 6 5 5 5 5 6 7 10 11 12 10 7 4 3 3 2 2 2 1 1 2 1 2 2 2 3 3 3 3 2 2 5 7 7
5 6 6 6 6 7 10 11 11 7 6 5 5 5 5 7 7 6 8 11 11 11 7 3 3 2 1 1 1 2 2 2 1 1 2 2 2 2 2 3 5 5 6
6 6 6 6 6 7 10 11 11 8 7 6 6 5 5 5 6 6 6 7 7 7 7 5 3 2 2 1 2 1 2 2 2 2 2 2 1 2 3 3 5 6 6
6 5 5 6 7 6 8 9 8 6 6 6 6 7 6 6 8 8 7 6 6 5 7 9 7 6 7 6 4 3 3 3 2 2 2 2 1 1 2 2 3 5 5
5 5 6 6 6 5 8 9 7 4 5 5 5 6 9 8 9 8 6 5 5 4 4 5 7 8 6 7 7 4 2 3 2 1 2 2 1 1 1 2 1 2 2
Wind_Direction
177 180 187 192 199 200 203 219 229 241 244 245 215 187 178 171 171 177 182 186 188 190 190 192 192 193 194 195 195 194 195 195 193 191 192 192 191 191 191 192 192 190 190
177 176 183 193 204 203 206 212 223 223 229 227 212 193 186 175 178 183 188 194 197 197 198 199 199 200 201 202 202 202 203 203 201 200 201 201 200 200 199 200 200 199 199
178 176 182 192 208 203 199 211 227 222 231 223 212 206 194 187 184 189 192 195 203 207 206 206 206 207 208 209 210 210 210 210 207 207 208 208 207 207 205 207 208 207 205
179 173 180 196 203 200 190 200 206 212 232 227 224 222 209 199 196 196 196 199 203 209 213 213 213 213 214 215 216 216 215 214 214 213 213 213 214 214 212 212 214 212 211
182 176 188 200 194 194 200 216 199 195 217 229 232 233 226 217 210 205 202 205 206 209 209 217 218 216 218 220 221 221 219 217 217 217 218 218 219 219 217 217 217 216 217
188 182 193 204 192 185 203 208 211 215 216 220 246 256 243 232 221 216 212 208 209 212 212 215 218 221 222 223 222 224 224 222 221 222 222 222 222 221 220 221 222 222 222
199 194 201 206 199 200 208 208 202 220 234 201 156 312 307 266 239 234 218 207 212 214 209 211 212 212 221 225 226 227 228 228 226 225 226 226 225 223 221 222 222 223 224
204 207 202 203 202 206 219 216 202 201 231 183 157 151 319 325 303 249 227 220 220 212 213 214 211 211 217 218 223 227 230 231 230 228 228 228 228 227 225 225 224 225 227
227 223 209 206 207 204 216 220 207 199 215 226 177 162 178 234 291 309 269 238 223 204 214 212 212 217 218 220 224 229 229 231 233 233 230 227 227 227 227 228 229 229 229
234 232 221 213 211 209 216 223 212 205 194 219 224 204 194 179 185 292 314 304 267 218 207 215 212 212 214 216 219 221 225 226 229 233 232 228 226 226 228 230 234 234 233
251 247 234 221 220 216 218 221 213 210 204 207 208 207 215 211 198 198 269 299 318 274 221 213 207 200 206 215 219 218 217 221 222 225 227 227 225 225 228 233 238 242 240
262 261 247 231 226 223 227 223 214 211 215 216 215 204 196 202 205 194 225 250 267 281 274 237 215 206 205 215 220 209 206 211 213 218 222 226 228 227 228 232 238 245 249
266 267 260 243 232 225 222 215 213 221 216 215 217 216 209 218 207 192 204 236 253 277 290 288 240 224 214 210 218 209 204 207 207 209 212 218 222 221 224 228 234 241 247
248 264 269 263 250 228 219 207 210 223 221 223 232 227 220 222 208 195 194 194 252 279 275 269 300 257 233 206 220 214 216 203 202 200 204 211 214 218 224 227 231 236 242
264 297 296 294 280 236 215 191 203 222 216 225 249 256 251 249 229 216 200 189 192 232 261 251 276 326 295 219 239 194 207 194 196 198 204 207 208 212 217 218 221 225 233
0 20 7 1 4 36 72 108 119 132 114 356 290 288 277 283 278 262 212 211 194 198 233 253 254 303 340 5 51 89 152 157 184 195 202 202 202 206 207 208 214 224 232
51 46 36 43 46 49 54 69 71 86 105 64 14 0 308 316 348 339 338 135 150 165 206 266 318 329 30 30 24 40 77 91 108 183 194 197 198 197 193 198 205 228 265
55 58 59 58 50 50 57 65 65 60 70 65 45 43 22 38 41 31 56 68 90 141 165 206 343 358 6 11 34 42 50 62 60 69 108 135 135 124 116 104 80 11 329
68 67 73 74 59 56 66 64 68 64 63 60 56 52 40 53 46 40 52 53 51 61 92 129 61 10 12 18 33 45 50 41 59 61 66 66 74 83 81 73 61 47 38
84 80 75 75 74 69 68 68 69 70 65 58 51 47 46 54 52 46 51 46 60 67 71 85 66 34 29 17 47 48 41 34 42 44 48 57 61 63 62 63 63 60 55
79 79 72 66 67 71 67 72 74 75 68 59 50 47 54 61 59 54 56 47 57 64 66 69 59 47 33 28 21 11 63 43 42 40 46 41 45 45 43 45 50 58 65
72 75 70 77 72 68 67 73 83 75 68 61 54 48 52 50 57 58 61 60 63 74 78 75 62 62 30 14 14 48 67 62 37 8 55 37 37 37 28 39 45 53 57
73 73 71 73 75 72 74 75 76 79 70 59 52 47 52 49 51 55 55 53 50 51 61 95 85 62 36 358 52 60 66 76 74 334 75 45 20 26 17 40 46 50 53
80 79 74 74 75 73 77 79 77 73 68 57 52 52 54 45 50 59 63 58 49 42 45 56 73 59 57 44 81 105 116 82 46 21 57 74 11 16 15 18 33 45 52
84 78 77 76 77 65 72 83 84 80 72 59 53 49 52 57 52 62 66 61 48 34 43 53 56 55 53 55 69 76 67 77 47 357 14 77 32 12 7 4 19 37 43
94 89 79 74 80 74 69 79 84 87 80 67 52 43 48 59 57 60 64 65 55 25 26 35 38 34 36 37 42 68 104 102 91 10 341 61 42 55 23 340 353 6 17